Vorticity
15 8 5 7 -1 21 5 2 0 0 2 8 7 4 2 0 4 7 4 11 7 8 6 6 11 11 7 16 12 17 14 14 9 5 7 8 9 9 6 6 5 4 4 5
20 10 7 7 0 11 3 8 1 5 -4 -3 8 3 -1 0 1 1 10 12 6 2 4 6 4 13 10 10 11 12 12 11 10 10 9 11 9 7 4 6 4 5 7 8
14 7 6 1 29 -2 4 -1 -0 5 0 -1 9 12 -1 5 5 4 9 9 6 3 5 6 7 3 5 10 7 9 12 26 8 5 2 18 13 6 18 -4 0 32 7 6
12 7 4 -2 7 0 14 -0 -7 10 4 3 2 17 -2 12 7 4 4 8 5 7 5 5 7 9 7 1 7 12 11 9 6 9 -1 10 23 6 38 60 5 13 7 10
11 8 3 15 -1 3 2 3 -0 4 -4 -5 3 23 15 4 -2 11 8 10 6 6 6 5 5 8 10 12 3 13 10 8 6 4 9 10 11 10 9 3 8 2 6 9
13 6 2 28 1 3 -2 0 6 -1 -5 -1 -1 8 -7 7 18 24 1 4 11 6 5 5 5 4 2 10 9 2 9 10 8 8 6 10 12 11 11 12 11 13 11 10
13 2 3 21 4 3 9 -0 1 3 -3 14 6 18 -3 3 7 6 2 3 5 7 4 5 4 2 -0 6 10 9 5 6 11 10 10 10 6 4 6 8 11 13 9 8
9 5 30 -0 0 9 6 -1 5 8 7 9 -1 11 -8 9 1 14 6 10 7 10 7 5 5 3 3 7 7 9 7 6 4 6 15 9 5 6 9 5 12 11 10 9
9 15 12 1 -2 -3 18 8 4 -3 18 1 3 17 -3 -13 4 22 8 16 39 19 8 4 5 4 3 1 7 2 4 6 7 4 1 13 8 8 6 6 7 8 11 10
7 17 7 -2 2 13 1 3 13 13 13 17 5 16 6 7 8 32 5 10 7 10 6 3 5 -0 4 7 9 0 4 1 4 5 4 4 12 7 7 5 3 3 9 7
9 5 3 -3 -1 -5 7 11 6 5 11 8 1 10 4 12 1 44 17 10 4 5 11 19 11 1 11 7 7 4 8 4 3 4 7 4 6 15 8 6 4 3 4 5
8 -6 7 3 3 4 7 11 16 14 14 1 -1 5 16 8 12 37 22 -5 -10 -3 9 16 16 16 13 7 4 10 6 6 4 2 4 5 4 7 10 9 6 6 5 4
6 -5 10 -2 2 4 19 0 15 4 5 2 1 -2 14 24 -1 17 10 -20 13 12 7 7 6 8 5 5 10 -8 15 8 8 2 5 5 4 4 6 5 6 9 8 6
11 7 5 5 8 9 11 3 3 5 9 3 0 6 11 -3 -6 4 -2 21 10 3 6 7 7 10 13 -2 5 32 14 44 5 8 7 7 5 5 6 3 3 4 5 7
6 6 17 -1 5 12 4 5 13 6 5 -1 1 -4 19 19 10 14 -3 3 7 -4 8 14 3 16 5 16 -12 50 39 28 -5 6 3 6 6 8 8 6 4 5 4 4
17 11 1 -1 -6 1 5 5 2 -0 1 2 2 0 -3 13 -5 6 3 16 1 8 0 9 10 9 5 5 11 16 19 6 6 7 12 8 5 12 10 7 7 7 6 10
3 -4 1 7 -0 1 3 -0 13 7 8 11 13 20 20 15 12 8 9 8 5 13 12 3 8 16 13 8 11 8 7 9 5 1 4 5 2 0 -2 3 3 3 3 3
6 8 3 9 9 3 0 1 -1 16 12 19 19 15 9 9 10 14 14 13 5 3 -0 0 6 4 11 10 6 12 -1 12 16 13 12 9 3 -2 -2 -1 -1 3 7 7
12 -6 -0 2 6 5 -3 3 16 18 3 5 -1 4 -2 8 11 6 3 6 -1 -2 8 -1 7 7 6 6 9 5 7 6 6 7 9 10 9 11 3 4 0 4 9 7
-5 -5 19 8 2 -2 5 8 7 12 18 7 8 5 5 -2 11 19 7 8 0 11 7 0 7 1 4 5 9 10 7 7 1 2 4 5 5 3 3 4 6 10 11 7
2 10 2 1 1 1 -4 -1 11 5 2 12 19 9 14 7 14 17 19 16 17 3 10 17 4 7 3 8 10 11 7 5 6 3 8 10 12 12 12 10 8 7 9 12
1 -1 -3 1 5 4 8 2 12 13 6 -4 13 12 3 34 9 3 11 22 27 -11 63 31 0 10 5 10 8 9 5 4 8 11 12 11 9 8 9 10 14 17 19 18
7 13 13 17 14 10 15 11 -14 16 6 9 2 -1 22 9 1 8 4 -2 21 38 48 -15 9 7 12 9 4 7 8 8 9 9 8 10 12 13 14 16 14 8 8 10
4 5 13 2 27 12 26 19 12 -0 10 16 15 16 10 -1 15 28 10 1 2 -1 15 6 9 5 8 7 8 11 13 9 9 10 15 17 17 13 9 7 11 11 10 12
7 10 11 11 -1 9 -4 6 19 31 -4 -1 43 13 3 11 -3 1 4 9 5 9 11 13 -2 12 12 10 8 9 9 10 13 12 10 10 12 11 12 12 12 11 11 7
11 13 11 14 13 20 10 6 7 -1 8 4 27 23 -4 -5 0 7 2 7 6 9 15 7 11 8 3 9 10 12 14 14 9 9 8 6 7 10 12 14 13 14 14 14
Height
5912 5916 5919 5923 5926 5929 5931 5932 5934 5934 5934 5934 5933 5932 5932 5932 5931 5929 5927 5925 5922 5920 5917 5913 5910 5907 5906 5905 5903 5903 5902 5901 5901 5900 5899 5900 5901 5904 5905 5904 5903 5900 5900 5901
5910 5913 5917 5920 5924 5927 5930 5931 5932 5933 5933 5933 5932 5931 5931 5931 5930 5929 5927 5925 5922 5920 5916 5913 5911 5909 5908 5907 5906 5903 5902 5900 5899 5898 5900 5902 5902 5902 5902 5899 5897 5897 5896 5896
5907 5910 5913 5918 5922 5926 5928 5930 5930 5931 5932 5932 5931 5931 5930 5930 5929 5928 5926 5924 5923 5920 5917 5915 5912 5911 5910 5909 5906 5904 5902 5901 5900 5899 5902 5901 5901 5898 5894 5893 5893 5888 5892 5892
5903 5907 5910 5915 5919 5923 5926 5926 5929 5930 5930 5930 5930 5930 5929 5928 5928 5927 5925 5923 5922 5920 5918 5916 5914 5913 5912 5912 5909 5907 5905 5903 5901 5901 5901 5899 5896 5894 5886 5886 5888 5888 5890 5890
5901 5902 5907 5911 5917 5921 5924 5925 5927 5928 5928 5928 5928 5927 5927 5927 5926 5926 5924 5921 5920 5918 5917 5917 5917 5916 5915 5913 5910 5907 5905 5903 5901 5900 5899 5898 5896 5895 5891 5889 5889 5890 5891 5889
5895 5900 5904 5911 5914 5919 5921 5923 5925 5926 5926 5926 5927 5927 5926 5925 5924 5922 5921 5919 5918 5916 5916 5917 5917 5916 5914 5913 5910 5907 5905 5904 5903 5902 5901 5900 5899 5897 5893 5891 5890 5889 5887 5884
5893 5898 5904 5909 5913 5916 5920 5922 5923 5924 5924 5925 5924 5925 5925 5924 5922 5920 5918 5916 5914 5916 5915 5914 5914 5913 5912 5912 5911 5908 5906 5904 5902 5901 5900 5897 5896 5892 5891 5890 5888 5885 5882 5880
5889 5895 5899 5906 5911 5915 5918 5920 5921 5921 5921 5923 5921 5922 5924 5922 5921 5919 5917 5913 5911 5913 5913 5913 5913 5913 5912 5913 5910 5909 5906 5903 5901 5899 5896 5895 5892 5890 5889 5887 5884 5881 5879 5877
5885 5892 5898 5904 5908 5912 5915 5917 5918 5918 5918 5919 5919 5921 5920 5919 5918 5915 5913 5910 5909 5910 5911 5912 5912 5911 5910 5910 5908 5908 5904 5902 5900 5896 5893 5892 5889 5889 5887 5885 5882 5878 5876 5873
5883 5891 5896 5901 5906 5909 5912 5915 5916 5915 5916 5916 5917 5918 5918 5917 5914 5911 5909 5910 5909 5908 5908 5909 5910 5911 5910 5907 5906 5905 5901 5898 5896 5895 5893 5890 5887 5887 5885 5883 5880 5876 5872 5869
5880 5888 5894 5899 5903 5906 5909 5911 5912 5913 5913 5913 5915 5917 5915 5914 5912 5910 5909 5908 5908 5908 5909 5910 5910 5908 5906 5904 5903 5902 5900 5896 5893 5892 5891 5888 5885 5884 5882 5880 5878 5873 5870 5866
5878 5885 5891 5896 5900 5903 5905 5908 5909 5910 5911 5912 5912 5915 5912 5910 5908 5906 5906 5907 5906 5906 5906 5906 5905 5903 5902 5901 5899 5899 5898 5897 5893 5888 5887 5886 5883 5881 5879 5877 5875 5873 5870 5867
5875 5881 5888 5894 5898 5901 5903 5905 5906 5908 5909 5910 5911 5912 5909 5908 5907 5904 5906 5907 5905 5903 5903 5902 5901 5898 5896 5895 5893 5891 5889 5890 5891 5886 5883 5882 5880 5878 5877 5874 5872 5869 5868 5865
5874 5881 5888 5893 5897 5900 5901 5903 5904 5905 5906 5907 5908 5909 5906 5902 5903 5905 5906 5904 5903 5902 5900 5899 5896 5894 5893 5890 5887 5880 5877 5880 5885 5881 5879 5877 5875 5874 5873 5870 5867 5865 5862 5860
5869 5876 5884 5890 5894 5896 5898 5899 5900 5901 5902 5903 5903 5904 5904 5899 5899 5902 5903 5901 5900 5898 5896 5894 5892 5891 5888 5885 5882 5876 5871 5876 5877 5874 5874 5873 5871 5869 5868 5867 5864 5861 5859 5856
5868 5874 5881 5887 5890 5892 5894 5895 5896 5897 5897 5898 5898 5899 5899 5899 5898 5897 5898 5896 5894 5892 5891 5888 5888 5886 5883 5881 5878 5873 5872 5871 5871 5871 5869 5867 5864 5863 5863 5861 5859 5856 5854 5851
5870 5875 5880 5884 5887 5889 5890 5891 5891 5893 5892 5892 5892 5893 5892 5891 5892 5892 5892 5891 5888 5887 5886 5884 5883 5880 5878 5877 5873 5870 5869 5867 5865 5864 5863 5862 5860 5858 5855 5852 5848 5846 5843 5840
5870 5874 5878 5881 5883 5884 5886 5886 5887 5887 5887 5887 5887 5886 5886 5885 5885 5886 5887 5886 5884 5882 5878 5879 5876 5874 5872 5871 5870 5868 5865 5863 5860 5858 5857 5856 5854 5852 5849 5847 5843 5840 5838 5834
5868 5871 5874 5876 5879 5881 5881 5882 5883 5882 5883 5883 5882 5880 5879 5879 5880 5882 5881 5880 5877 5873 5871 5870 5868 5867 5867 5867 5865 5862 5860 5857 5855 5853 5851 5848 5846 5843 5840 5836 5833 5829 5827 5824
5865 5868 5871 5872 5873 5875 5878 5878 5878 5877 5877 5877 5874 5872 5872 5871 5872 5872 5871 5869 5865 5865 5863 5863 5861 5860 5862 5861 5859 5858 5854 5850 5848 5846 5844 5842 5839 5835 5832 5827 5823 5820 5817 5813
5860 5863 5865 5867 5868 5869 5871 5871 5872 5871 5873 5868 5866 5864 5863 5863 5863 5861 5860 5857 5857 5856 5858 5854 5849 5851 5854 5853 5849 5847 5846 5844 5842 5839 5837 5834 5830 5825 5822 5818 5815 5811 5807 5803
5855 5858 5860 5862 5862 5863 5865 5865 5865 5864 5862 5860 5857 5856 5854 5853 5854 5855 5852 5851 5844 5836 5828 5843 5846 5846 5845 5843 5842 5840 5838 5836 5834 5831 5827 5824 5820 5816 5812 5808 5804 5799 5797 5792
5849 5850 5853 5855 5855 5856 5855 5856 5856 5856 5855 5852 5851 5849 5846 5846 5847 5848 5845 5842 5841 5837 5831 5831 5837 5839 5838 5836 5833 5832 5830 5828 5825 5821 5817 5813 5810 5805 5800 5797 5794 5790 5785 5781
5841 5843 5845 5847 5848 5848 5848 5848 5847 5848 5847 5845 5843 5841 5840 5838 5837 5838 5837 5837 5834 5831 5830 5829 5828 5830 5831 5830 5828 5826 5824 5820 5816 5813 5809 5804 5800 5795 5792 5789 5784 5779 5775 5771
5834 5836 5838 5840 5840 5841 5841 5841 5841 5841 5839 5838 5836 5836 5833 5832 5830 5829 5829 5829 5827 5826 5826 5826 5825 5825 5823 5820 5818 5816 5814 5810 5806 5802 5800 5796 5792 5787 5784 5778 5772 5767 5763 5759
5826 5828 5829 5832 5832 5833 5834 5833 5834 5834 5832 5831 5831 5830 5829 5828 5825 5824 5822 5820 5819 5818 5817 5816 5815 5813 5812 5811 5809 5807 5804 5800 5797 5793 5789 5785 5780 5776 5770 5765 5760 5756 5751 5747